Wind_Speed
26 28 29 29 29 28 27 26 24 23 21 19 18 16 15 14 13 12 11 10 10 8 7 5 3 2 2 3 4 4 4 3 4 6 9 12 14 14 14 14 16 17 18 17 16 18 19 20 18 18 21 23 21 16 15 15 19 20 18 12 5 8 13 15 10 4 3 3 3 4 4 3 3 2 3 2 2 2 3 4 5 6 7 9 11 13 14 14
26 27 28 29 30 30 29 28 27 25 24 22 20 18 17 16 15 14 12 12 11 10 9 7 5 3 1 2 3 3 4 4 5 6 7 11 13 14 14 14 15 16 18 17 17 19 21 22 21 21 21 17 15 13 19 18 16 15 12 7 4 9 9 8 5 2 2 2 3 4 4 4 3 3 4 2 2 2 3 3 4 5 6 8 11 13 14 14
26 26 28 29 30 31 31 30 29 28 26 25 23 21 19 18 17 16 14 13 12 12 11 9 7 5 3 1 1 2 3 3 3 3 3 8 12 14 15 15 15 15 17 17 17 20 22 23 22 24 20 10 10 18 22 20 15 13 4 5 5 9 8 2 1 3 2 2 3 3 4 4 4 5 4 2 1 1 2 2 2 4 5 7 9 12 12 14
27 27 27 28 30 31 31 32 31 30 29 27 25 24 22 21 20 18 16 15 14 13 12 11 10 8 6 3 1 1 2 3 2 2 4 9 13 15 16 16 16 15 15 15 17 19 20 20 19 21 18 10 14 15 14 15 11 7 6 5 2 8 7 2 1 3 2 2 4 3 5 5 5 4 3 2 2 1 0 0 1 3 5 6 8 10 11 12
27 28 28 28 29 30 31 32 32 32 31 30 28 26 25 23 22 20 18 17 15 15 14 13 11 10 8 5 3 0 2 3 2 1 4 8 13 17 17 17 16 14 14 13 15 17 18 16 13 15 15 17 20 13 8 4 7 3 5 11 7 8 4 3 2 2 3 2 4 5 6 6 5 4 3 2 2 1 0 2 1 3 5 6 7 8 9 10
26 28 29 29 29 30 31 32 33 33 33 33 31 29 28 26 24 23 21 19 17 16 15 15 13 12 10 7 4 2 1 2 1 2 3 6 11 16 18 17 16 14 13 13 16 18 19 16 12 14 20 22 20 14 10 4 4 5 7 9 7 6 4 3 2 1 2 2 4 5 7 7 6 5 4 1 2 1 1 2 3 4 4 6 7 7 7 8
22 26 29 30 30 30 31 31 32 33 34 34 33 32 30 28 27 25 23 21 20 18 17 16 15 14 12 9 7 4 3 1 1 1 3 7 10 14 17 17 17 15 14 15 19 21 20 19 16 18 25 24 18 13 9 4 7 6 8 4 5 6 5 4 3 1 1 2 4 5 7 8 7 5 3 1 2 3 2 2 3 4 4 5 5 5 6 6
17 21 26 30 31 32 32 31 32 33 34 35 35 34 33 31 29 28 26 24 22 21 19 18 17 16 14 12 9 7 5 2 1 1 2 6 9 13 16 18 18 16 16 16 20 21 20 20 18 17 22 23 17 12 5 8 7 7 8 5 6 5 4 4 3 2 2 3 4 4 5 7 7 7 5 3 4 4 3 2 2 3 4 4 4 4 5 5
17 18 20 26 30 32 33 32 32 32 33 35 36 36 35 34 32 30 29 27 25 23 22 20 18 17 15 14 12 9 7 5 3 1 2 5 9 13 16 19 19 18 18 18 21 20 21 20 19 15 19 17 15 7 11 13 11 12 13 8 6 4 3 4 3 2 1 3 4 3 3 5 7 7 5 4 4 4 3 3 2 3 3 4 4 4 4 5
19 19 18 20 25 31 33 33 33 33 33 33 35 37 37 36 35 33 31 30 27 25 24 22 20 19 17 16 13 11 10 8 6 3 3 5 8 12 16 19 19 20 19 18 21 22 24 19 16 19 20 13 17 7 11 14 13 14 15 12 8 4 3 4 3 3 2 3 5 4 3 4 5 6 5 3 3 3 3 4 3 3 4 4 4 4 4 5
21 20 20 19 21 26 31 34 34 34 33 33 34 36 38 38 37 36 34 32 30 28 27 24 22 20 19 18 15 13 13 10 8 5 4 5 8 11 15 18 19 20 20 20 23 26 27 20 18 23 17 8 13 4 8 17 17 14 15 14 8 5 3 3 3 2 1 3 5 3 2 2 3 5 5 3 2 3 4 5 5 5 5 5 5 4 4 5
22 22 21 21 20 21 26 32 35 35 35 34 33 34 37 39 38 38 36 35 33 31 29 27 25 22 21 20 18 16 15 13 11 8 6 6 8 10 13 17 20 20 21 22 25 28 29 23 18 21 21 13 10 9 12 14 13 10 11 8 4 6 3 2 3 2 1 2 2 2 1 1 2 3 5 5 3 3 4 5 5 6 6 6 7 6 4 5
24 23 22 22 21 21 22 26 32 36 36 35 34 34 35 37 39 39 38 37 35 34 32 29 27 24 23 22 19 18 18 15 13 12 9 6 7 10 11 15 19 22 23 25 26 28 29 25 16 11 23 21 11 14 9 6 12 9 6 5 6 6 3 2 1 2 1 2 3 2 3 2 3 3 4 6 5 3 3 4 5 6 7 7 8 6 5 5
24 24 24 23 23 22 22 23 27 33 36 36 36 35 34 35 38 40 40 39 37 36 35 32 30 27 25 24 22 22 21 17 15 13 11 8 9 10 12 14 17 22 25 27 27 25 26 24 16 10 27 29 15 14 8 5 17 13 9 9 8 6 3 2 2 5 3 4 4 5 3 4 4 3 3 4 4 4 1 2 4 5 6 8 8 7 6 5
24 25 25 25 24 23 23 23 23 27 33 37 37 36 35 34 36 39 41 40 39 38 37 35 32 29 28 26 24 25 24 20 17 15 13 11 10 11 13 15 16 21 25 27 26 22 21 20 14 14 31 33 21 18 12 13 17 14 16 13 9 9 6 3 1 4 3 3 5 6 2 4 3 3 2 2 3 4 2 1 3 4 5 7 8 8 7 6
24 25 26 26 26 25 24 24 24 24 28 34 37 37 37 36 35 37 40 41 40 39 39 37 35 32 30 27 26 28 27 22 19 16 15 14 12 13 15 16 18 20 23 23 22 19 16 16 15 21 32 31 28 26 19 18 16 13 15 14 11 10 8 5 2 4 4 2 5 8 4 2 3 3 2 2 2 3 3 2 1 2 3 5 7 8 8 7
25 25 25 26 27 27 26 25 25 24 25 29 35 37 37 38 37 36 38 41 41 41 40 38 36 34 32 30 29 31 29 24 22 19 17 17 15 15 15 17 19 20 20 20 20 20 17 16 20 25 28 25 28 28 18 18 19 15 9 9 12 10 10 8 5 5 6 4 6 9 5 2 3 2 2 3 3 2 3 2 0 1 1 3 6 7 8 8
26 25 26 26 26 28 27 26 25 25 25 26 30 36 38 39 38 37 37 39 41 41 42 40 38 37 35 34 32 32 30 27 25 23 21 20 18 16 15 17 19 19 20 21 22 21 20 19 22 25 23 20 24 28 23 20 16 10 2 5 10 9 11 9 7 8 8 7 6 6 7 3 1 1 1 2 4 3 2 2 1 1 1 1 4 5 7 7
26 26 27 26 26 27 28 28 26 26 26 25 27 32 38 40 39 38 37 37 38 40 42 42 40 39 37 36 34 33 31 30 28 26 24 22 20 18 17 18 20 21 21 22 22 20 20 21 23 25 21 18 23 29 30 23 11 3 4 7 6 6 5 5 6 10 9 9 8 6 11 8 3 4 3 1 3 4 4 4 2 2 2 1 2 3 5 5
26 27 27 27 27 27 27 28 28 27 27 26 26 29 35 39 39 39 38 35 36 38 42 43 40 40 40 38 37 35 33 32 31 28 26 24 23 21 19 20 21 22 21 21 23 22 22 23 22 21 19 17 21 27 31 23 12 6 6 10 4 2 9 10 7 12 11 11 12 7 11 13 6 7 8 5 4 4 5 6 4 2 2 2 1 1 2 3
27 27 27 28 28 27 27 27 28 27 27 28 27 27 32 37 39 40 38 35 36 38 41 41 40 42 42 40 38 37 35 33 32 31 29 27 26 24 22 21 21 21 21 22 25 25 24 25 20 17 18 18 19 24 30 26 13 8 11 12 8 9 16 17 14 18 17 14 14 9 10 17 13 10 10 9 7 7 6 6 6 5 4 3 3 2 1 1
27 27 28 28 28 28 28 27 27 27 28 29 28 28 30 35 38 41 40 37 37 39 39 39 40 42 42 40 39 39 37 35 35 34 32 31 29 26 24 22 20 20 22 25 27 27 25 24 20 17 19 20 21 27 33 32 24 12 12 14 10 14 20 22 21 19 16 13 15 17 16 19 17 13 12 10 11 10 7 6 6 6 7 6 5 3 3 2
27 28 28 28 28 29 28 28 26 27 29 29 29 29 29 32 37 42 42 38 36 38 38 38 40 41 41 41 41 41 39 36 35 35 34 32 30 28 26 23 21 22 25 27 25 23 21 21 22 20 20 22 23 28 34 34 30 23 16 16 17 22 25 25 22 18 16 13 19 25 21 18 18 18 15 11 11 13 12 9 7 7 9 9 8 6 5 4
28 28 28 29 29 29 29 27 26 27 29 29 30 30 29 30 34 39 41 38 36 36 36 36 38 41 40 42 44 42 40 37 36 36 36 34 31 29 28 25 24 24 26 26 22 21 19 20 24 23 21 23 21 21 30 36 31 28 27 25 20 21 24 24 21 19 17 17 23 26 22 23 24 23 20 15 14 15 16 14 11 10 11 10 10 9 8 6
29 28 28 29 29 29 30 28 26 28 29 29 29 29 28 28 31 35 38 39 35 32 35 36 37 40 39 41 45 42 39 37 36 38 37 34 33 31 29 27 27 26 25 25 23 21 20 22 26 25 23 23 21 21 27 34 33 31 31 29 21 13 16 23 26 23 21 22 27 29 26 28 26 19 18 19 18 17 17 16 13 13 12 11 11 11 10 9
30 29 29 29 29 29 30 29 26 28 30 29 28 28 28 28 30 33 37 39 35 31 35 36 35 37 37 38 42 40 39 38 37 39 37 35 34 32 31 30 28 27 26 26 25 23 22 25 27 27 25 21 19 22 25 28 31 29 29 30 25 19 16 21 26 23 21 20 26 31 28 28 25 17 17 20 20 19 19 18 16 14 14 13 12 11 10 11
31 31 29 30 29 28 30 30 27 28 30 28 27 28 29 29 31 32 34 37 33 29 33 33 32 34 33 35 39 38 38 38 39 40 38 37 37 35 34 32 30 29 28 28 29 25 25 28 28 27 27 23 18 21 24 24 24 21 26 34 29 24 19 15 24 23 21 20 23 29 27 27 27 19 17 20 19 19 19 19 20 19 17 16 16 13 11 11
33 32 30 31 30 27 28 31 28 28 29 27 26 28 29 29 30 30 31 33 30 28 30 29 29 30 32 37 40 38 37 37 38 40 38 37 38 37 36 33 31 30 30 31 29 25 25 28 28 26 26 24 21 21 21 19 21 19 24 29 23 19 16 11 24 26 23 21 19 21 24 27 27 21 18 19 18 16 18 22 25 23 18 18 19 16 13 11
33 33 32 31 32 28 27 31 30 27 28 27 26 28 28 28 29 30 31 30 25 24 26 26 25 26 31 38 40 37 37 38 38 39 38 38 39 38 36 34 32 32 32 32 29 25 25 26 25 24 23 24 23 22 23 21 24 21 24 23 18 19 16 12 16 20 18 18 16 17 23 24 23 25 24 20 18 16 18 22 25 24 21 20 21 19 17 13
34 34 33 31 32 30 27 30 31 27 27 28 28 29 28 29 28 30 32 26 20 21 24 24 22 22 28 37 39 35 36 38 38 38 39 38 38 39 36 35 35 35 35 33 31 28 24 20 22 23 22 21 21 23 24 26 25 21 22 20 19 22 23 21 20 19 21 24 19 13 17 22 24 28 27 23 19 17 18 22 23 23 22 22 21 20 20 15
34 35 34 32 33 31 28 31 31 28 28 29 30 30 30 29 29 31 28 19 17 22 22 21 21 23 26 32 35 31 32 36 37 39 41 40 39 40 39 40 39 39 39 35 32 30 26 19 21 25 23 19 19 22 23 27 27 27 20 12 13 18 21 26 33 31 29 29 24 18 18 22 26 29 29 26 21 18 20 24 24 23 23 23 21 19 19 15
35 36 35 34 32 31 30 32 31 28 29 30 30 31 30 30 31 31 21 13 19 22 19 18 20 22 24 29 30 26 28 34 36 39 42 41 41 42 42 43 42 41 41 36 31 30 29 26 23 28 28 22 20 21 24 28 31 33 28 20 18 22 23 27 34 35 35 34 31 26 23 24 26 28 28 23 21 21 24 27 26 23 23 23 22 21 20 17
34 35 36 35 32 31 33 34 31 29 30 30 31 32 32 32 32 27 19 18 21 18 11 12 16 17 21 26 26 24 27 32 33 36 41 41 41 41 42 42 41 40 39 36 32 30 30 29 27 29 30 25 25 28 29 30 34 34 30 29 27 25 22 24 30 33 34 34 36 35 29 26 25 25 26 24 21 22 24 27 25 22 22 20 20 22 20 17
34 35 35 35 33 32 34 35 32 30 30 31 32 34 34 34 30 22 19 20 19 16 13 4 9 15 19 21 22 23 26 29 30 32 38 41 41 42 43 42 41 39 36 35 35 33 32 33 31 30 30 27 28 32 30 26 31 31 25 25 29 27 25 22 26 31 28 25 30 35 29 24 20 21 24 24 22 22 24 26 26 25 24 17 13 14 16 18
35 34 34 35 35 34 36 36 33 31 31 32 34 36 37 33 26 20 19 18 17 19 17 5 6 18 22 19 21 22 25 27 27 29 35 40 41 42 44 43 41 39 36 34 35 33 31 27 23 24 29 29 27 28 25 21 22 23 23 27 30 34 33 25 22 23 17 14 20 24 21 18 19 22 22 21 22 23 25 28 28 29 29 25 21 19 20 23
35 34 33 34 35 36 36 37 35 33 32 33 35 37 36 30 23 18 17 20 22 22 17 8 10 22 26 24 22 21 25 25 23 26 32 39 40 40 42 42 41 40 39 37 35 33 30 24 19 22 29 30 25 24 26 27 23 22 28 35 35 31 29 23 20 18 15 14 17 18 19 18 20 24 25 24 24 24 25 27 29 31 32 33 31 28 26 25
34 33 32 32 35 38 38 37 36 35 33 34 36 35 33 28 23 19 21 28 29 26 23 17 17 23 26 28 23 19 23 25 24 26 31 36 39 38 39 41 42 40 39 37 32 28 28 27 25 28 31 30 24 21 27 29 26 25 29 32 31 27 25 23 23 24 23 22 18 15 18 20 20 23 26 27 25 24 25 25 28 30 31 33 32 29 28 26
34 32 31 32 36 39 39 37 37 36 34 35 35 33 32 28 22 20 26 35 34 29 25 22 22 26 26 26 25 19 23 27 27 29 32 35 38 37 37 38 40 39 36 34 30 24 24 24 22 25 25 24 21 19 27 28 25 26 31 27 21 22 25 27 27 28 27 25 21 15 14 17 19 21 24 27 27 25 23 23 27 29 29 30 30 26 24 23
33 31 31 33 37 39 38 37 37 37 36 35 33 30 29 26 21 21 31 38 37 31 28 29 27 26 26 24 23 19 22 28 29 30 33 34 35 35 34 34 37 39 34 33 32 28 24 23 20 21 21 20 23 21 30 32 29 30 32 26 19 15 15 20 25 26 27 25 22 18 17 19 20 21 23 26 27 25 22 24 29 30 28 27 26 25 25 26
33 31 31 34 37 38 37 38 38 39 37 33 31 28 28 25 22 25 34 40 39 36 34 35 32 26 27 28 23 20 21 25 27 29 32 33 32 33 33 30 32 36 34 34 35 31 26 25 22 20 24 27 31 28 28 33 32 33 33 29 24 19 12 15 20 22 25 27 24 23 24 24 23 24 24 24 25 26 27 30 31 30 28 28 28 31 32 31
32 31 33 35 36 37 38 40 39 38 36 32 30 28 27 26 24 28 37 42 40 36 34 35 35 30 27 28 25 23 22 24 25 27 30 31 31 30 32 29 27 32 34 36 39 36 30 28 23 19 25 31 33 30 25 25 28 34 33 32 29 25 19 19 21 20 23 28 26 23 25 27 25 25 26 24 25 27 29 31 31 30 30 32 33 33 32 31
33 33 35 35 35 37 39 41 40 38 36 32 30 28 26 26 26 29 38 43 40 35 33 33 34 31 27 28 28 29 29 27 26 27 29 30 30 28 28 26 24 28 34 38 42 38 32 31 27 23 26 28 28 27 26 19 20 31 38 37 36 35 29 23 21 20 21 24 24 22 24 28 27 25 25 24 25 26 27 29 29 30 31 33 34 33 31 30
33 33 36 35 34 36 39 41 40 40 37 31 30 29 28 28 28 31 38 44 41 37 35 35 36 34 31 33 36 37 37 33 29 29 30 29 28 25 22 23 22 24 31 39 43 39 34 34 32 28 26 27 24 22 25 23 18 26 35 34 33 36 31 22 18 22 22 20 19 21 26 31 30 27 26 25 25 25 27 29 31 34 35 32 31 32 31 30
33 34 36 35 35 36 38 40 40 39 36 32 31 30 29 29 30 32 38 45 44 37 34 33 33 32 31 34 39 40 38 34 33 31 29 27 28 25 20 21 22 23 29 37 42 42 37 36 36 29 25 28 26 23 26 30 27 25 29 29 25 26 26 22 20 23 25 22 19 19 25 31 32 30 28 28 29 30 32 33 34 36 37 33 31 30 30 29
33 33 35 36 36 37 38 39 39 39 36 33 31 30 30 30 31 32 37 46 47 38 32 29 26 26 29 34 40 42 40 36 33 34 31 25 26 26 21 21 23 24 26 32 39 42 38 37 38 33 29 32 32 27 28 33 32 27 29 33 30 27 28 28 27 25 25 24 24 22 24 28 30 31 32 32 33 33 34 37 37 37 37 35 31 28 27 28
33 33 36 38 37 37 39 39 39 39 37 34 32 32 32 30 31 32 36 45 50 43 35 29 28 29 27 31 40 41 40 39 34 36 34 23 23 30 26 23 25 25 24 28 33 39 39 38 38 34 32 34 32 25 25 32 34 28 26 32 37 34 32 32 30 27 24 25 28 29 29 30 31 33 33 33 32 32 35 38 40 40 37 32 29 27 26 25
34 35 37 38 37 37 39 39 39 39 38 36 33 33 34 33 32 33 34 41 48 45 39 35 34 34 28 31 41 42 40 40 36 37 37 27 28 38 35 28 28 27 25 27 31 34 36 38 39 34 32 35 35 29 24 27 33 29 23 25 34 36 33 32 32 29 26 25 28 30 31 33 34 34 34 32 32 34 35 36 39 42 40 34 29 28 25 21
35 36 37 38 38 38 38 38 39 40 40 37 34 34 35 34 35 34 33 37 40 41 44 44 40 37 33 35 42 42 41 40 37 36 36 33 37 43 39 36 36 33 30 31 35 35 34 37 41 39 35 36 39 36 28 23 26 27 24 23 28 31 30 31 33 31 30 29 28 28 28 30 32 34 36 36 36 38 38 37 37 38 39 34 27 25 24 23
35 36 37 38 38 38 37 34 36 40 42 40 37 36 35 35 35 35 33 34 35 35 43 47 42 37 38 39 43 42 38 37 38 36 35 39 46 45 39 37 39 36 34 33 37 38 37 39 41 42 41 39 39 40 35 28 26 28 27 24 25 27 27 28 32 32 31 29 26 26 28 31 33 34 36 38 40 43 44 43 36 29 27 27 26 26 28 28
36 36 37 39 38 37 36 33 33 38 41 41 39 38 37 36 35 36 35 35 35 33 38 45 44 39 39 44 48 46 37 33 37 39 37 43 50 48 41 38 39 39 35 34 38 40 40 41 41 42 45 43 40 41 39 36 34 31 30 28 27 26 24 25 29 32 34 33 30 32 35 35 33 32 34 38 41 44 46 46 41 34 31 31 30 29 31 33
37 36 37 39 37 35 35 34 33 37 40 41 40 38 38 38 37 40 42 39 36 33 33 40 45 42 40 46 51 50 42 34 36 43 43 46 50 48 43 40 41 42 37 33 39 44 42 43 44 43 43 41 39 37 35 38 39 36 33 31 28 25 24 24 27 31 34 34 32 35 37 36 33 33 35 37 40 42 45 47 47 44 41 37 32 30 32 35
38 37 37 39 37 34 35 35 35 38 41 42 41 40 40 40 39 42 45 42 36 33 28 30 40 46 46 47 50 54 52 44 42 48 49 47 49 49 44 38 38 41 37 32 37 46 45 45 46 46 43 40 37 33 31 33 35 36 36 33 28 27 28 31 32 32 34 34 31 33 35 34 35 37 37 37 40 44 47 50 51 48 42 35 30 31 33 34
Wind_Direction
249 246 243 241 239 237 234 233 232 231 228 226 224 225 229 233 236 234 235 235 234 234 231 221 201 163 98 73 71 73 85 120 159 176 187 186 181 182 179 177 176 174 172 165 160 152 145 143 138 134 132 128 125 105 74 71 76 71 69 66 22 310 301 298 292 287 318 14 20 351 4 5 0 19 6 40 121 95 89 88 99 108 115 118 115 110 109 109
251 249 247 244 242 239 238 235 234 232 230 228 225 224 225 229 233 233 233 232 232 231 231 227 214 202 166 87 73 75 86 121 171 192 195 188 184 181 178 178 178 178 174 167 161 155 151 148 146 141 133 141 145 95 59 61 79 75 58 29 296 242 258 285 273 308 354 25 11 338 357 3 337 338 339 0 99 93 92 92 97 97 108 119 115 110 108 108
250 250 249 247 245 242 240 238 236 234 233 230 227 225 223 226 230 231 231 230 230 228 228 227 220 212 199 162 87 77 83 109 169 192 177 180 184 180 180 181 179 181 178 169 162 157 154 155 155 141 134 150 123 85 66 52 66 90 63 329 309 250 245 269 306 358 21 14 3 349 358 8 354 341 335 345 39 85 92 85 90 92 108 119 115 112 109 108
252 250 248 248 247 245 243 240 238 236 234 233 230 227 224 224 226 230 230 228 228 226 227 225 222 217 206 196 169 77 82 99 101 156 163 174 184 184 185 185 183 185 180 172 164 159 156 156 158 143 134 122 80 73 73 36 20 96 138 183 270 283 262 240 250 331 334 340 349 359 9 31 27 346 334 346 317 296 101 231 85 105 121 118 112 112 110 108
254 252 249 248 247 246 245 243 240 237 236 234 232 230 227 225 224 227 228 227 227 225 225 224 223 220 211 205 200 132 98 117 92 152 172 176 185 187 188 189 189 186 178 173 159 156 155 152 163 146 121 99 80 70 101 50 335 18 167 190 240 277 241 239 217 290 306 332 1 15 23 46 40 351 355 341 283 277 221 228 156 126 127 116 109 108 108 107
257 253 251 249 247 245 245 244 243 240 237 235 234 232 229 227 225 226 227 226 225 224 225 222 222 220 214 208 203 216 151 138 111 141 163 173 187 190 190 192 192 188 176 165 153 154 155 151 162 138 101 85 89 89 103 160 265 302 263 208 221 231 199 280 246 225 319 24 27 15 16 41 37 7 12 314 219 138 161 194 148 130 123 111 107 108 108 106
268 258 253 251 249 246 244 243 243 242 240 236 234 233 231 230 227 226 226 226 225 224 223 221 221 219 216 210 203 215 210 184 89 137 164 166 185 192 192 193 192 189 174 162 155 155 153 150 159 142 105 88 98 96 90 200 219 244 271 212 189 207 206 259 241 234 8 42 25 18 18 38 34 13 17 349 145 126 133 161 139 126 118 108 103 109 111 109
289 271 259 253 250 248 245 243 242 242 242 239 236 234 232 231 229 228 227 226 225 224 224 221 219 218 216 211 206 212 216 217 180 134 184 168 178 190 192 192 192 189 176 165 160 157 150 153 171 151 105 90 92 88 140 229 259 264 273 247 219 222 201 212 213 268 351 28 17 26 29 41 32 17 21 35 85 108 125 137 129 116 112 107 102 107 112 116
301 292 275 260 252 249 247 244 242 240 241 241 239 236 233 232 230 229 228 227 225 224 224 222 219 217 214 212 208 211 216 215 204 162 192 179 176 183 189 191 190 189 180 170 165 157 147 164 188 149 96 93 108 126 221 247 287 276 269 263 252 253 199 195 189 191 109 61 37 30 38 51 39 27 34 49 70 92 115 121 117 109 109 109 109 106 113 124
298 299 293 277 261 252 249 246 244 241 239 240 240 239 236 234 232 230 229 228 226 224 225 223 220 216 214 213 206 209 218 212 209 200 184 185 182 182 188 192 191 189 184 174 166 156 150 166 178 126 90 105 133 155 232 229 244 254 266 268 261 248 184 187 176 132 102 69 50 37 34 43 34 34 50 63 85 96 101 105 109 110 111 115 120 119 124 137
294 295 296 293 279 262 252 248 245 243 240 238 238 239 238 237 234 231 229 229 228 225 225 224 222 217 213 213 205 207 215 207 208 217 192 184 186 184 187 193 195 190 183 175 167 163 164 176 164 117 83 112 143 156 203 199 223 249 260 258 249 229 191 192 186 133 78 71 61 36 12 42 36 32 46 56 88 89 85 91 102 104 110 116 115 122 129 138
291 291 292 293 292 280 264 252 247 244 242 240 238 238 238 238 237 234 231 229 229 227 226 225 223 218 213 211 205 208 214 204 204 211 202 195 191 189 190 192 195 192 184 179 176 174 179 188 172 118 91 107 146 200 195 194 225 248 245 236 218 213 209 219 188 167 189 66 74 70 50 94 67 42 45 45 53 75 78 80 94 96 97 103 101 106 110 118
289 289 289 289 290 289 281 264 252 246 243 241 239 238 237 236 237 237 234 230 229 228 227 225 224 220 215 211 204 209 215 209 209 209 202 201 193 194 196 194 193 191 187 187 187 186 187 191 197 143 121 128 173 202 176 189 219 217 214 215 223 218 210 233 277 356 330 35 21 42 84 81 34 37 47 37 36 65 88 83 94 93 88 90 89 92 93 98
288 288 287 287 287 287 287 280 265 252 245 242 241 240 238 235 235 236 237 234 230 228 227 226 225 221 216 212 203 209 215 209 215 216 206 200 192 192 196 197 196 191 191 196 198 197 193 196 232 223 148 143 173 178 129 216 225 221 225 231 225 214 217 220 0 335 323 52 358 339 64 89 45 24 39 25 20 46 102 116 105 95 88 90 89 89 87 84
286 286 286 286 285 285 285 285 279 264 251 244 242 241 240 238 234 233 235 236 233 230 228 226 225 222 218 213 204 211 215 206 210 216 213 209 197 193 192 196 199 194 195 203 208 208 199 195 226 209 157 147 159 160 155 209 227 234 233 233 209 194 213 214 0 311 291 25 339 323 26 89 63 36 33 11 0 17 46 117 116 104 97 92 88 88 84 78
285 284 285 285 284 284 283 283 282 276 262 249 243 241 241 240 236 232 232 234 234 231 229 227 225 223 220 213 207 212 215 208 206 211 217 216 203 197 193 192 198 199 202 206 209 217 212 192 194 182 164 158 158 157 169 197 215 228 223 225 212 193 201 207 259 284 277 304 304 306 313 86 84 67 3 336 352 352 23 61 117 118 103 94 88 85 81 78
285 283 282 282 283 283 283 283 282 280 273 258 247 242 241 241 239 235 231 231 232 232 231 228 225 224 221 216 211 213 213 208 206 207 214 219 211 203 198 194 197 200 203 204 202 211 212 191 186 182 174 172 162 157 178 202 208 213 205 219 223 213 212 199 188 235 268 251 249 283 290 102 98 77 5 325 341 349 7 32 202 187 105 82 87 84 78 79
285 283 281 280 281 281 282 282 282 281 277 269 254 245 242 241 239 237 234 231 230 230 230 229 226 224 222 217 214 214 212 208 207 207 209 216 215 209 205 198 196 197 199 201 198 202 206 195 191 190 190 193 171 160 181 197 200 204 214 269 232 210 220 214 203 231 263 259 240 267 275 260 259 289 61 302 315 323 320 337 293 220 211 57 81 82 77 81
285 283 281 279 278 278 279 280 281 281 279 274 263 250 244 241 239 238 236 234 232 229 228 228 227 225 223 220 216 214 212 208 207 207 208 213 215 211 208 201 196 196 199 201 197 199 210 208 201 199 205 208 180 163 173 191 218 221 31 331 238 184 240 268 265 259 265 269 264 268 272 271 251 279 301 271 286 286 276 278 265 224 222 313 32 66 67 75
284 283 281 279 277 276 277 278 279 281 280 277 269 257 247 243 241 238 236 237 237 232 228 227 226 225 224 222 218 214 212 209 207 208 208 211 214 213 210 205 200 199 199 199 196 199 211 217 213 207 212 206 180 161 162 184 244 285 3 343 312 274 319 335 314 283 291 282 267 261 273 277 267 276 292 295 269 239 252 275 274 256 228 244 298 15 49 53
282 282 280 279 277 275 274 275 277 279 280 279 273 263 252 245 242 239 234 235 236 233 229 226 224 225 224 222 221 217 212 208 207 208 209 211 212 213 213 210 208 204 198 194 196 202 207 213 215 207 210 203 179 160 156 170 205 263 288 301 310 304 309 318 305 291 297 286 271 273 276 277 282 284 282 287 279 244 235 266 281 280 263 236 243 247 239 9
282 281 280 278 276 274 273 273 274 277 278 278 275 267 256 247 243 240 234 231 234 234 230 226 223 225 225 223 222 221 216 209 207 207 209 211 212 213 214 213 212 206 199 197 200 205 205 205 205 202 208 200 174 160 157 164 173 191 252 265 276 287 291 294 290 284 286 292 305 314 301 282 281 284 276 275 279 272 259 262 271 276 276 267 250 234 226 235
282 281 279 278 275 273 272 271 273 275 274 275 275 270 263 253 245 241 236 231 232 234 231 227 225 223 224 223 221 221 218 212 209 208 210 212 212 213 213 213 211 205 203 205 206 210 205 198 199 200 206 194 171 164 163 166 171 175 199 225 242 263 274 280 282 277 274 301 321 318 313 299 290 288 284 280 281 285 285 280 275 270 270 272 266 253 243 239
280 280 279 277 275 273 271 270 271 271 271 272 273 273 271 262 251 246 242 235 231 234 233 229 227 225 223 223 222 221 218 214 210 209 211 212 212 213 213 211 210 208 209 210 210 213 205 194 199 204 206 193 175 175 174 169 173 180 188 198 218 255 274 274 270 271 274 296 308 306 309 310 304 293 285 287 288 288 291 286 283 277 269 270 270 270 267 259
278 277 277 277 275 273 270 269 269 268 269 270 272 275 275 268 258 252 248 240 232 233 234 228 226 226 224 224 225 221 218 216 213 212 212 211 213 213 212 212 210 209 211 211 210 210 201 193 200 209 208 196 185 185 183 175 176 186 189 184 186 219 261 263 259 268 276 285 292 294 300 307 306 293 282 288 289 290 289 283 285 286 279 275 271 272 275 272
275 275 275 275 274 273 270 268 267 267 267 269 271 273 271 265 256 250 247 242 233 232 235 230 226 227 226 227 228 224 219 215 214 215 212 210 213 212 212 213 211 209 209 211 211 206 199 193 199 210 204 199 200 192 191 190 183 186 190 179 173 183 206 242 254 266 281 282 284 287 296 302 299 288 285 288 286 288 289 284 288 290 284 283 278 271 271 273
274 272 272 273 272 271 271 268 265 264 265 267 269 269 267 264 259 253 249 245 236 231 235 233 228 227 227 229 228 224 220 217 214 216 212 211 213 212 212 212 211 210 207 210 212 204 200 196 198 209 204 197 207 201 194 201 199 194 188 178 173 174 180 234 253 257 275 275 272 282 294 297 293 286 283 283 278 281 291 296 296 293 286 281 278 272 265 269
272 270 270 271 271 269 269 268 264 262 263 265 268 268 266 265 262 257 252 248 240 231 233 233 228 226 226 228 227 222 219 216 215 216 212 212 215 214 214 213 211 211 210 213 213 204 205 205 198 204 212 205 202 198 184 197 227 218 180 176 185 186 179 235 256 256 271 272 267 282 292 293 292 288 284 284 282 289 304 304 295 289 285 277 274 271 264 266
271 268 267 268 269 268 266 267 264 261 262 263 263 264 263 261 259 255 250 247 240 233 232 231 227 225 227 229 228 223 219 216 214 214 212 211 216 216 214 215 212 210 213 216 211 201 204 213 203 196 213 213 197 188 176 189 229 216 170 174 211 228 214 211 245 258 257 249 256 278 284 285 288 288 288 286 289 304 312 304 294 289 286 278 271 270 270 270
270 267 265 265 267 267 265 264 263 260 259 258 258 258 258 255 253 252 249 243 234 229 228 225 220 220 226 231 230 224 223 220 215 213 211 209 214 216 214 215 213 210 212 215 212 201 193 213 222 206 212 219 198 188 193 201 209 190 166 175 200 223 226 204 208 234 232 226 233 250 270 281 283 281 283 285 292 304 302 299 299 291 283 277 272 274 278 274
270 266 264 262 263 266 265 262 260 259 257 255 255 255 255 253 249 248 249 241 225 226 225 219 215 217 224 232 231 225 226 224 218 215 212 206 210 213 211 212 213 211 210 210 212 204 186 196 227 219 212 218 201 192 211 218 198 176 174 182 192 213 228 216 207 215 221 223 222 216 230 256 266 270 277 285 294 298 293 293 296 288 276 271 272 277 280 277
270 267 264 260 259 263 263 260 258 257 256 253 252 252 251 249 246 244 243 225 215 222 225 220 219 219 225 235 233 224 225 226 220 219 215 208 208 211 212 213 213 214 214 209 208 209 200 195 212 219 210 207 208 211 221 216 193 181 185 191 207 223 232 230 219 215 219 221 217 215 227 241 249 265 277 283 289 289 287 288 290 286 272 266 273 279 281 283
270 267 264 259 257 258 260 259 256 255 255 252 250 250 248 246 245 243 232 218 215 210 208 231 238 228 227 238 237 225 225 227 223 223 221 213 209 211 213 216 216 216 218 213 204 207 211 203 204 218 217 203 204 219 224 209 190 187 190 187 197 221 232 229 227 226 230 234 228 224 239 251 248 260 270 270 276 280 281 283 283 280 271 272 284 284 283 288
270 267 264 258 254 254 256 258 255 253 254 252 248 247 246 245 245 240 223 215 211 190 172 202 272 255 242 241 240 229 226 229 223 223 227 219 210 211 212 214 216 216 217 218 210 206 211 209 206 214 219 212 208 218 224 211 194 193 201 198 194 210 227 229 232 236 241 251 239 230 246 264 258 263 268 265 268 271 270 274 276 278 281 285 290 285 285 292
269 268 264 257 252 250 253 256 254 252 252 251 247 245 245 246 244 236 219 203 185 170 161 133 282 265 263 253 241 231 224 229 226 219 228 227 214 211 214 212 214 213 211 215 215 212 210 208 210 217 220 224 227 226 216 196 193 199 214 226 215 208 218 228 232 234 242 252 237 237 259 275 271 273 273 267 267 270 270 273 276 282 287 289 290 293 296 293
269 269 264 255 251 249 250 253 252 251 250 250 247 244 245 248 241 228 205 180 163 152 148 151 217 244 261 264 254 237 220 222 227 219 224 231 223 214 215 214 213 214 212 212 215 215 206 189 197 220 224 228 234 228 206 186 192 210 215 224 229 218 212 220 232 242 256 252 235 240 252 255 259 265 267 267 267 272 275 276 277 281 286 290 296 303 305 297
269 269 264 255 249 246 247 249 250 250 249 249 247 244 245 246 237 218 185 170 166 158 154 164 193 217 242 261 261 240 219 214 217 218 220 232 231 219 216 216 215 215 216 216 215 215 209 196 203 219 220 228 237 221 203 191 191 217 227 228 237 234 215 212 232 250 259 257 252 250 244 242 249 259 263 264 263 269 277 281 281 282 285 291 297 301 299 296
268 268 263 254 248 245 244 246 248 249 249 248 247 243 243 241 231 210 183 176 175 169 171 187 196 198 212 245 259 241 220 211 209 216 219 231 238 228 220 219 217 216 215 216 214 207 208 206 217 231 224 231 243 208 191 190 188 215 239 241 236 229 216 212 223 237 244 250 258 259 251 252 256 259 260 260 261 270 280 284 283 283 286 290 295 295 292 295
267 266 260 253 248 243 242 244 246 247 247 247 245 242 241 238 227 202 186 184 184 178 186 195 193 191 193 217 249 248 228 216 210 217 222 228 237 236 229 224 220 218 210 209 208 201 202 200 208 242 245 245 252 218 190 191 194 207 223 230 231 229 227 224 225 231 235 238 244 244 243 248 248 249 253 257 263 269 273 273 274 277 282 287 291 288 285 291
265 264 258 252 248 243 241 242 243 245 246 246 246 242 238 233 220 201 190 191 191 187 189 187 184 193 191 192 217 236 238 229 214 216 226 229 233 237 236 229 223 221 209 202 201 194 193 190 192 231 246 242 250 241 210 204 212 214 206 208 227 240 242 236 232 234 234 236 242 244 243 244 244 246 250 255 259 259 260 262 265 273 278 280 281 280 283 288
262 261 256 251 247 241 239 239 241 245 245 245 244 238 234 229 215 201 194 196 197 192 191 187 184 191 190 186 198 211 229 243 230 219 226 232 234 236 238 234 225 221 211 199 197 194 187 181 188 225 238 233 241 249 239 227 232 231 209 193 205 219 227 236 239 236 231 237 247 247 244 249 253 252 252 253 255 254 257 261 263 269 273 274 276 278 282 288
260 259 257 253 248 242 239 238 238 241 242 242 242 236 231 226 214 203 198 198 197 193 193 192 185 186 189 186 189 196 208 228 237 234 233 235 239 239 239 240 232 222 212 199 198 203 194 184 194 218 232 237 242 248 252 243 233 231 217 199 194 200 211 225 237 239 237 243 248 238 239 252 257 254 252 256 261 262 265 267 268 268 270 276 281 283 284 287
258 258 257 254 249 243 240 238 238 240 239 238 240 234 226 221 213 205 201 198 197 194 195 195 189 192 196 186 185 194 200 204 211 226 238 240 243 246 241 239 237 227 214 201 199 203 197 188 194 206 226 242 241 237 246 248 236 224 218 210 202 199 200 203 225 243 244 244 240 229 235 246 251 252 255 260 265 267 267 267 270 274 275 278 282 286 287 286
255 255 256 253 248 242 239 238 239 239 237 237 237 231 224 220 214 208 202 199 199 194 193 195 192 196 201 190 186 193 200 201 195 201 222 234 239 248 249 237 233 230 218 204 198 202 200 190 188 196 215 227 220 216 230 240 242 226 211 211 216 215 208 202 212 232 240 242 242 236 236 242 248 256 263 265 264 264 265 266 269 273 276 280 282 286 288 288
252 252 253 251 247 242 238 236 237 236 234 234 235 228 223 220 215 211 205 201 201 194 189 195 196 199 205 198 191 191 198 204 197 191 201 216 223 235 248 240 232 231 222 208 200 204 206 196 187 190 201 208 212 213 216 226 237 234 214 204 206 217 224 220 216 217 225 234 241 242 242 245 253 259 262 265 266 268 273 275 275 274 275 279 281 283 285 286
250 248 249 249 246 242 238 235 235 234 230 230 230 224 220 218 215 214 208 204 205 199 192 198 202 205 209 199 192 192 196 203 203 194 192 197 205 214 226 233 233 232 221 211 205 205 208 205 195 195 202 207 213 214 214 221 229 235 226 207 200 207 219 226 228 227 226 232 238 241 242 246 253 259 261 264 271 277 281 280 280 280 278 279 282 285 285 283
247 246 247 248 248 244 238 235 234 230 225 227 228 222 218 215 213 213 210 207 207 205 202 204 208 210 205 189 189 194 197 201 203 196 191 192 198 202 207 212 223 233 223 208 207 208 209 210 206 204 208 210 210 209 211 219 225 233 239 221 208 209 214 221 234 247 252 248 246 246 245 247 251 255 259 264 271 277 277 276 278 279 277 280 285 285 282 278
245 245 246 247 247 244 239 237 237 230 222 221 223 221 219 217 212 210 209 205 205 212 214 208 206 210 202 185 187 196 199 199 200 197 194 195 197 200 203 199 203 222 226 208 204 209 212 215 214 214 215 213 209 206 203 204 216 228 236 235 230 229 226 221 227 245 256 257 259 261 259 258 257 258 261 266 271 272 271 273 277 276 275 277 276 269 270 273
243 243 244 244 244 243 240 239 241 234 223 218 218 217 217 218 215 209 205 202 204 218 223 211 204 209 209 197 192 196 204 207 207 207 202 196 197 200 203 197 193 208 223 216 209 211 212 214 217 219 221 218 209 204 200 197 204 214 218 223 233 239 237 225 220 226 232 236 248 257 258 257 257 262 268 271 273 272 272 274 274 269 268 270 269 271 277 278
242 240 241 241 241 240 237 234 237 235 226 219 217 216 214 216 216 207 201 201 204 215 223 216 206 206 211 208 200 198 208 216 218 219 210 198 197 197 197 198 197 201 210 212 214 217 215 215 217 219 222 222 214 207 207 205 205 210 212 208 208 221 231 229 225 226 227 231 240 246 250 254 256 263 270 270 272 274 275 275 272 267 265 267 271 279 283 282
241 238 239 240 238 236 235 230 229 231 227 220 217 216 215 216 215 210 206 203 202 208 217 216 209 203 206 209 205 202 207 214 219 222 212 196 193 193 191 196 200 201 201 206 218 224 223 223 223 219 219 220 214 211 218 218 213 214 214 209 208 220 233 233 230 231 233 241 248 249 250 254 258 263 265 264 265 268 271 274 274 274 276 276 275 278 280 283
240 236 235 237 235 231 231 228 225 224 221 218 217 215 215 216 215 213 211 207 206 211 212 210 207 203 203 207 207 207 207 209 215 218 207 192 188 190 189 192 199 201 196 199 216 223 224 226 226 221 217 213 206 208 219 224 224 223 221 217 213 218 228 231 230 231 234 237 244 251 254 256 257 259 259 257 258 262 265 269 271 274 279 283 278 272 273 278
Height
5900 5900 5901 5902 5903 5904 5905 5905 5906 5907 5908 5909 5909 5910 5911 5911 5912 5912 5913 5913 5913 5913 5914 5914 5914 5914 5914 5914 5914 5914 5913 5913 5913 5913 5913 5913 5913 5914 5914 5915 5915 5916 5918 5919 5921 5922 5923 5925 5926 5928 5928 5929 5930 5931 5931 5931 5930 5932 5933 5934 5933 5931 5933 5933 5931 5931 5929 5929 5929 5929 5929 5929 5929 5929 5929 5929 5929 5928 5928 5927 5927 5927 5926 5926 5925 5925 5924 5924
5897 5898 5899 5900 5901 5902 5903 5904 5904 5905 5906 5907 5908 5909 5909 5910 5910 5911 5912 5912 5913 5913 5913 5913 5913 5914 5914 5914 5914 5914 5913 5913 5913 5913 5912 5912 5913 5914 5914 5915 5915 5916 5917 5919 5920 5921 5923 5924 5924 5925 5928 5930 5930 5929 5930 5931 5932 5934 5936 5938 5937 5934 5933 5932 5931 5930 5929 5929 5930 5929 5929 5929 5929 5929 5930 5929 5929 5929 5929 5929 5928 5927 5927 5927 5927 5926 5926 5926
5895 5895 5896 5897 5898 5899 5900 5901 5902 5903 5904 5905 5906 5907 5908 5908 5909 5910 5910 5911 5912 5912 5912 5913 5913 5913 5913 5914 5914 5914 5913 5913 5913 5912 5912 5913 5913 5914 5914 5915 5915 5916 5917 5918 5920 5921 5922 5923 5923 5923 5927 5931 5929 5928 5932 5934 5935 5935 5937 5939 5937 5935 5933 5932 5931 5930 5930 5930 5930 5930 5930 5930 5930 5930 5930 5930 5930 5930 5930 5930 5929 5928 5928 5928 5927 5927 5927 5927
5892 5893 5893 5894 5895 5896 5897 5899 5900 5901 5902 5903 5904 5905 5906 5907 5907 5908 5909 5910 5910 5911 5911 5912 5912 5913 5913 5913 5913 5913 5913 5913 5913 5912 5912 5913 5913 5914 5914 5915 5915 5915 5916 5918 5920 5921 5923 5925 5926 5923 5925 5929 5927 5929 5933 5936 5938 5938 5938 5939 5937 5935 5933 5932 5932 5931 5931 5931 5930 5930 5930 5931 5930 5930 5930 5930 5930 5930 5930 5930 5930 5929 5928 5928 5928 5928 5928 5928
5889 5890 5890 5891 5892 5893 5894 5896 5897 5898 5900 5901 5902 5903 5904 5905 5905 5906 5907 5908 5909 5910 5910 5911 5911 5912 5912 5913 5913 5913 5913 5913 5913 5912 5912 5912 5912 5913 5914 5914 5915 5916 5916 5918 5920 5922 5924 5927 5928 5925 5924 5926 5926 5930 5935 5937 5940 5939 5939 5939 5937 5936 5934 5933 5933 5932 5932 5931 5931 5930 5931 5931 5931 5930 5930 5930 5930 5930 5931 5931 5930 5929 5929 5929 5928 5928 5929 5929
5886 5887 5887 5888 5889 5890 5891 5892 5894 5895 5897 5898 5900 5901 5902 5903 5903 5904 5905 5906 5907 5908 5909 5910 5910 5911 5911 5912 5913 5913 5913 5913 5912 5912 5912 5912 5912 5913 5913 5914 5915 5916 5917 5918 5920 5921 5924 5927 5929 5926 5924 5927 5928 5931 5936 5938 5940 5939 5939 5938 5937 5935 5934 5933 5933 5933 5932 5931 5931 5931 5931 5931 5931 5931 5931 5931 5931 5931 5931 5931 5931 5930 5929 5929 5929 5929 5929 5929
5884 5884 5885 5885 5886 5886 5888 5889 5890 5892 5893 5895 5896 5898 5899 5901 5901 5902 5903 5904 5905 5906 5907 5908 5909 5910 5911 5911 5912 5912 5912 5912 5912 5912 5912 5912 5912 5913 5913 5914 5915 5916 5917 5919 5920 5921 5923 5926 5927 5925 5923 5927 5930 5934 5938 5939 5940 5938 5937 5937 5936 5935 5935 5934 5933 5933 5932 5932 5932 5932 5932 5932 5932 5932 5932 5932 5932 5931 5931 5932 5931 5930 5930 5930 5929 5929 5929 5930
5882 5882 5882 5882 5883 5883 5884 5885 5887 5888 5890 5891 5893 5895 5896 5898 5899 5900 5901 5902 5903 5904 5905 5907 5908 5909 5909 5910 5911 5912 5912 5912 5912 5912 5912 5911 5912 5912 5913 5914 5915 5916 5918 5919 5920 5921 5923 5925 5926 5924 5923 5926 5931 5936 5940 5940 5939 5938 5937 5936 5935 5935 5935 5934 5933 5933 5933 5933 5933 5933 5933 5933 5933 5933 5932 5932 5933 5932 5932 5932 5932 5931 5931 5930 5930 5930 5930 5930
5880 5880 5879 5879 5880 5880 5881 5882 5883 5885 5886 5888 5890 5891 5893 5895 5896 5898 5899 5900 5901 5902 5903 5905 5906 5907 5908 5909 5910 5911 5911 5911 5912 5912 5911 5911 5911 5912 5913 5914 5915 5916 5917 5918 5920 5921 5922 5924 5924 5923 5924 5927 5932 5937 5940 5940 5939 5938 5936 5936 5935 5935 5934 5934 5933 5933 5933 5933 5933 5933 5933 5934 5934 5934 5933 5933 5933 5933 5933 5933 5933 5933 5932 5931 5931 5931 5931 5931
5879 5878 5878 5877 5877 5877 5878 5879 5880 5881 5883 5884 5886 5888 5889 5891 5893 5895 5896 5898 5899 5900 5901 5902 5904 5905 5907 5908 5909 5910 5910 5910 5911 5911 5911 5911 5911 5911 5912 5913 5914 5915 5917 5919 5920 5920 5922 5924 5922 5922 5926 5930 5934 5938 5939 5939 5938 5936 5936 5935 5935 5935 5934 5934 5933 5933 5933 5933 5933 5933 5934 5934 5934 5934 5934 5934 5934 5935 5935 5934 5934 5934 5933 5932 5932 5932 5932 5932
5876 5876 5876 5875 5875 5874 5874 5875 5876 5877 5879 5880 5882 5884 5886 5888 5889 5891 5893 5895 5896 5898 5899 5900 5902 5903 5905 5906 5908 5908 5908 5909 5910 5910 5910 5910 5911 5910 5911 5912 5913 5915 5917 5919 5919 5919 5921 5922 5920 5920 5925 5931 5935 5938 5938 5937 5937 5936 5935 5934 5935 5934 5934 5934 5933 5933 5933 5933 5933 5933 5934 5935 5934 5935 5935 5936 5936 5936 5936 5935 5935 5935 5934 5933 5933 5933 5933 5933
5874 5874 5873 5873 5873 5872 5872 5872 5873 5874 5875 5877 5878 5880 5882 5884 5886 5888 5890 5892 5893 5895 5896 5898 5900 5901 5903 5904 5906 5907 5906 5908 5908 5909 5910 5909 5910 5910 5910 5911 5913 5915 5916 5918 5918 5918 5919 5921 5919 5918 5922 5930 5936 5938 5938 5936 5936 5936 5934 5934 5934 5934 5934 5933 5933 5933 5933 5933 5933 5933 5934 5935 5935 5935 5935 5936 5936 5936 5936 5936 5936 5936 5935 5934 5934 5933 5933 5933
5871 5871 5871 5871 5870 5870 5869 5869 5869 5870 5872 5873 5874 5876 5878 5880 5882 5884 5886 5888 5890 5892 5893 5895 5897 5899 5901 5902 5904 5905 5905 5906 5907 5907 5908 5908 5909 5909 5910 5910 5911 5914 5915 5916 5916 5916 5918 5921 5920 5917 5919 5928 5935 5936 5937 5937 5935 5934 5934 5934 5934 5934 5933 5933 5933 5933 5932 5932 5933 5933 5933 5934 5935 5935 5935 5936 5936 5936 5936 5936 5936 5936 5936 5935 5934 5934 5934 5934
5868 5868 5868 5868 5868 5868 5867 5866 5866 5867 5868 5870 5871 5872 5874 5875 5878 5880 5882 5884 5886 5888 5890 5892 5895 5897 5899 5900 5902 5903 5903 5905 5906 5906 5907 5907 5908 5909 5909 5910 5911 5912 5913 5914 5914 5915 5917 5920 5920 5917 5918 5924 5930 5933 5936 5936 5934 5934 5934 5934 5934 5934 5933 5933 5933 5933 5932 5932 5933 5933 5933 5934 5935 5935 5935 5935 5936 5936 5937 5937 5937 5937 5936 5935 5934 5934 5934 5934
5866 5865 5865 5865 5865 5865 5865 5864 5864 5864 5864 5866 5867 5869 5870 5871 5873 5875 5878 5880 5883 5885 5887 5889 5892 5894 5896 5898 5900 5900 5901 5903 5904 5905 5906 5906 5907 5908 5908 5909 5910 5911 5912 5912 5913 5914 5916 5918 5919 5918 5918 5921 5923 5930 5934 5933 5933 5933 5934 5934 5933 5933 5933 5933 5934 5933 5933 5933 5933 5932 5933 5934 5935 5935 5935 5935 5936 5936 5937 5937 5937 5937 5937 5936 5935 5934 5934 5935
5863 5862 5862 5862 5862 5862 5862 5862 5861 5861 5861 5862 5863 5865 5866 5867 5869 5871 5873 5875 5878 5881 5883 5886 5889 5891 5894 5896 5897 5897 5898 5901 5902 5904 5905 5905 5906 5906 5907 5908 5909 5910 5910 5911 5912 5914 5915 5916 5918 5917 5918 5918 5919 5925 5930 5931 5932 5932 5932 5933 5933 5933 5933 5933 5934 5934 5933 5934 5934 5933 5933 5934 5935 5936 5936 5935 5936 5937 5937 5937 5937 5938 5937 5936 5935 5935 5935 5935
5859 5859 5859 5859 5859 5859 5859 5859 5859 5858 5858 5858 5859 5861 5862 5863 5865 5866 5868 5871 5874 5877 5880 5882 5885 5888 5890 5892 5893 5893 5896 5899 5901 5902 5903 5903 5904 5904 5906 5906 5907 5908 5909 5910 5911 5913 5915 5915 5916 5916 5916 5916 5917 5922 5926 5928 5930 5931 5932 5933 5932 5933 5933 5933 5934 5934 5933 5934 5934 5933 5932 5933 5934 5935 5936 5935 5936 5937 5937 5937 5937 5938 5937 5936 5936 5935 5935 5936
5855 5856 5856 5856 5856 5856 5856 5856 5856 5856 5855 5855 5856 5857 5858 5858 5860 5863 5864 5867 5869 5872 5875 5878 5881 5884 5886 5888 5890 5891 5894 5897 5898 5900 5901 5901 5902 5903 5904 5905 5905 5907 5907 5909 5909 5911 5913 5914 5914 5915 5915 5915 5915 5918 5923 5927 5928 5930 5932 5931 5932 5933 5933 5933 5934 5933 5933 5933 5934 5933 5931 5932 5933 5934 5936 5935 5935 5936 5937 5937 5938 5938 5937 5937 5936 5936 5936 5936
5852 5852 5852 5853 5853 5853 5853 5853 5853 5853 5852 5852 5852 5853 5853 5854 5856 5859 5861 5864 5866 5868 5870 5873 5877 5880 5882 5884 5887 5889 5891 5894 5896 5897 5898 5899 5900 5901 5902 5903 5904 5905 5905 5907 5908 5910 5912 5912 5912 5913 5914 5915 5914 5916 5921 5926 5928 5930 5932 5931 5930 5932 5933 5934 5934 5934 5934 5933 5933 5933 5931 5930 5932 5933 5934 5935 5935 5935 5936 5937 5937 5937 5937 5937 5936 5936 5936 5936
5848 5848 5848 5849 5850 5850 5850 5850 5850 5850 5849 5849 5849 5849 5849 5850 5852 5854 5858 5861 5862 5864 5866 5869 5873 5875 5878 5881 5882 5885 5888 5891 5893 5895 5897 5897 5898 5899 5900 5901 5902 5902 5904 5906 5907 5909 5910 5910 5911 5913 5914 5915 5915 5915 5920 5926 5929 5929 5931 5931 5929 5930 5931 5933 5934 5934 5934 5934 5932 5933 5931 5929 5930 5932 5932 5933 5934 5935 5936 5936 5936 5936 5936 5936 5936 5936 5937 5936
5845 5845 5845 5845 5846 5846 5847 5847 5847 5847 5847 5846 5846 5846 5845 5846 5848 5849 5853 5856 5857 5859 5862 5866 5869 5870 5873 5877 5879 5882 5884 5887 5890 5892 5894 5895 5896 5897 5898 5899 5900 5901 5903 5904 5906 5906 5907 5908 5911 5913 5914 5915 5915 5916 5919 5924 5929 5930 5930 5931 5930 5929 5930 5932 5934 5933 5934 5934 5932 5933 5932 5928 5929 5930 5930 5931 5932 5933 5935 5934 5934 5935 5935 5936 5936 5936 5936 5936
5842 5842 5841 5841 5842 5842 5843 5844 5844 5844 5843 5842 5842 5842 5842 5842 5843 5844 5847 5851 5853 5854 5858 5862 5864 5866 5870 5873 5876 5878 5881 5884 5886 5888 5891 5892 5893 5895 5896 5897 5899 5900 5901 5902 5902 5903 5904 5907 5910 5912 5913 5914 5914 5916 5919 5921 5926 5930 5932 5933 5931 5930 5932 5933 5933 5933 5933 5933 5932 5932 5932 5930 5928 5928 5929 5930 5930 5930 5932 5933 5934 5934 5934 5935 5935 5935 5936 5936
5839 5838 5838 5838 5838 5839 5839 5840 5841 5841 5839 5839 5838 5838 5839 5839 5839 5839 5842 5847 5849 5850 5854 5858 5860 5862 5865 5868 5871 5874 5878 5881 5883 5886 5888 5889 5891 5893 5894 5896 5897 5898 5899 5899 5900 5902 5903 5907 5910 5911 5912 5914 5914 5916 5919 5920 5922 5925 5930 5934 5934 5932 5933 5933 5932 5933 5932 5931 5929 5930 5931 5931 5929 5927 5927 5928 5928 5928 5929 5931 5932 5933 5933 5934 5934 5934 5935 5935
5835 5835 5835 5835 5835 5835 5835 5837 5838 5837 5836 5836 5835 5836 5836 5836 5837 5837 5839 5843 5847 5848 5851 5855 5856 5858 5861 5864 5866 5870 5875 5878 5880 5882 5884 5887 5889 5890 5892 5894 5895 5896 5897 5898 5900 5901 5903 5906 5908 5909 5910 5911 5914 5917 5918 5919 5921 5923 5924 5930 5934 5933 5932 5930 5930 5931 5931 5929 5927 5927 5929 5930 5930 5928 5927 5927 5927 5927 5927 5928 5930 5931 5932 5933 5933 5933 5933 5933
5831 5832 5831 5831 5831 5831 5832 5833 5834 5833 5833 5833 5833 5834 5834 5834 5835 5835 5836 5838 5844 5846 5846 5850 5853 5855 5858 5860 5861 5867 5872 5875 5877 5879 5881 5884 5886 5888 5890 5891 5892 5894 5895 5897 5898 5900 5902 5904 5906 5907 5908 5909 5911 5915 5918 5918 5919 5921 5923 5927 5931 5933 5932 5928 5927 5929 5930 5929 5926 5925 5927 5928 5928 5928 5927 5926 5926 5926 5925 5926 5927 5929 5930 5931 5932 5932 5932 5932
5827 5828 5828 5827 5828 5828 5828 5829 5830 5830 5829 5830 5831 5831 5830 5830 5829 5830 5830 5833 5840 5843 5842 5846 5850 5853 5856 5857 5859 5865 5868 5871 5873 5875 5878 5881 5883 5885 5887 5888 5890 5892 5893 5895 5896 5898 5900 5901 5903 5904 5906 5908 5909 5912 5916 5918 5918 5919 5923 5926 5928 5930 5932 5928 5926 5929 5930 5930 5927 5924 5926 5926 5925 5927 5927 5926 5925 5924 5923 5923 5925 5926 5928 5929 5930 5931 5931 5931
5823 5824 5824 5824 5824 5826 5825 5825 5827 5826 5825 5827 5828 5827 5826 5826 5825 5827 5828 5830 5836 5840 5840 5844 5849 5851 5854 5854 5855 5860 5864 5867 5870 5871 5875 5878 5879 5882 5883 5886 5888 5889 5891 5892 5892 5895 5898 5898 5900 5902 5903 5905 5908 5910 5913 5916 5918 5918 5921 5925 5926 5927 5930 5928 5927 5928 5929 5930 5927 5923 5923 5923 5922 5926 5926 5925 5924 5923 5923 5922 5923 5924 5926 5927 5927 5929 5930 5930
5819 5820 5820 5820 5820 5823 5822 5820 5822 5823 5822 5824 5825 5823 5824 5824 5823 5825 5826 5828 5833 5837 5838 5841 5846 5849 5850 5849 5851 5856 5859 5862 5865 5867 5872 5875 5875 5878 5881 5883 5886 5888 5889 5889 5890 5894 5896 5896 5898 5901 5902 5903 5906 5909 5912 5915 5917 5918 5920 5924 5927 5927 5929 5928 5926 5926 5927 5927 5925 5922 5921 5920 5920 5922 5924 5923 5923 5923 5923 5921 5921 5921 5924 5925 5925 5926 5928 5928
5814 5815 5816 5816 5816 5819 5820 5817 5818 5820 5820 5821 5821 5820 5820 5820 5821 5822 5822 5826 5831 5834 5836 5839 5843 5845 5845 5845 5848 5853 5855 5857 5860 5864 5868 5871 5872 5875 5878 5881 5884 5885 5886 5887 5890 5893 5894 5896 5897 5898 5900 5902 5905 5908 5911 5913 5915 5917 5919 5922 5925 5926 5927 5927 5925 5924 5924 5922 5923 5923 5920 5919 5918 5918 5920 5921 5921 5922 5922 5921 5919 5919 5921 5922 5922 5923 5924 5926
5810 5810 5812 5813 5812 5814 5816 5814 5813 5816 5817 5816 5816 5816 5816 5817 5818 5818 5820 5825 5830 5831 5833 5836 5840 5841 5841 5841 5845 5851 5853 5854 5857 5859 5863 5867 5869 5872 5875 5878 5880 5881 5882 5884 5887 5889 5892 5895 5896 5895 5898 5902 5904 5907 5908 5910 5913 5916 5918 5919 5921 5922 5924 5925 5924 5923 5922 5920 5922 5923 5921 5919 5917 5916 5917 5919 5920 5921 5921 5921 5920 5919 5919 5919 5919 5920 5920 5922
5806 5806 5807 5809 5809 5810 5812 5810 5810 5813 5812 5812 5813 5812 5813 5814 5815 5815 5819 5825 5828 5828 5830 5834 5837 5838 5838 5839 5843 5849 5851 5852 5854 5855 5857 5862 5864 5866 5870 5871 5874 5876 5877 5880 5884 5886 5888 5892 5894 5894 5897 5901 5903 5905 5906 5908 5911 5914 5915 5917 5919 5920 5920 5921 5920 5920 5919 5918 5920 5922 5921 5919 5917 5916 5916 5918 5919 5921 5920 5920 5920 5919 5918 5917 5918 5918 5918 5919
5801 5801 5802 5804 5806 5807 5807 5805 5807 5809 5808 5808 5809 5809 5810 5811 5810 5813 5819 5823 5824 5825 5830 5834 5835 5837 5838 5837 5841 5847 5848 5848 5851 5851 5853 5857 5859 5862 5864 5866 5870 5872 5873 5877 5882 5883 5884 5888 5892 5893 5894 5898 5901 5903 5903 5905 5908 5910 5910 5913 5916 5917 5916 5917 5917 5917 5916 5916 5919 5920 5920 5918 5917 5915 5915 5916 5918 5919 5918 5918 5919 5919 5918 5916 5916 5916 5915 5917
5796 5796 5798 5799 5802 5803 5801 5800 5803 5804 5804 5805 5805 5805 5806 5806 5807 5813 5818 5820 5821 5824 5830 5833 5834 5836 5838 5837 5839 5844 5844 5845 5849 5849 5850 5854 5857 5859 5862 5865 5868 5871 5873 5877 5879 5881 5882 5884 5888 5891 5892 5894 5898 5899 5900 5901 5903 5906 5907 5908 5911 5913 5913 5914 5915 5915 5915 5915 5917 5919 5918 5916 5915 5914 5912 5913 5916 5916 5916 5915 5915 5916 5916 5916 5915 5913 5913 5914
5791 5792 5793 5795 5798 5799 5796 5796 5799 5800 5800 5801 5801 5801 5801 5801 5806 5812 5816 5818 5822 5825 5828 5831 5833 5834 5835 5836 5838 5840 5842 5843 5846 5848 5847 5849 5853 5855 5857 5861 5865 5869 5873 5875 5876 5878 5880 5881 5883 5886 5889 5891 5894 5895 5897 5900 5902 5904 5906 5907 5909 5911 5911 5911 5913 5913 5914 5914 5915 5917 5916 5914 5913 5913 5910 5911 5913 5913 5912 5911 5911 5911 5912 5914 5914 5914 5913 5913
5786 5787 5789 5791 5792 5794 5792 5792 5794 5796 5796 5796 5797 5796 5796 5800 5806 5811 5814 5818 5823 5824 5825 5829 5833 5833 5833 5835 5836 5837 5840 5842 5844 5845 5844 5845 5850 5852 5854 5858 5862 5865 5869 5871 5873 5875 5877 5880 5883 5885 5886 5888 5891 5894 5896 5900 5902 5903 5905 5905 5906 5907 5908 5909 5911 5912 5914 5913 5913 5915 5915 5913 5912 5910 5909 5909 5910 5909 5909 5908 5906 5905 5906 5909 5911 5913 5913 5912
5781 5782 5785 5786 5788 5788 5788 5788 5789 5791 5792 5792 5792 5792 5795 5800 5805 5809 5813 5817 5821 5821 5821 5826 5832 5834 5832 5832 5834 5835 5837 5840 5842 5843 5842 5842 5846 5850 5852 5856 5859 5862 5865 5868 5871 5874 5876 5879 5882 5884 5885 5886 5888 5891 5893 5896 5899 5901 5902 5901 5902 5906 5909 5909 5909 5910 5911 5911 5910 5912 5912 5911 5910 5909 5907 5908 5907 5907 5906 5905 5903 5903 5903 5905 5908 5910 5910 5910
5776 5778 5780 5782 5782 5782 5783 5784 5785 5786 5787 5787 5787 5790 5794 5799 5803 5807 5810 5813 5814 5814 5815 5820 5827 5832 5832 5831 5832 5833 5835 5838 5840 5841 5841 5840 5842 5847 5851 5854 5856 5860 5864 5867 5870 5873 5876 5878 5880 5881 5883 5885 5886 5890 5891 5892 5896 5899 5899 5900 5903 5906 5907 5906 5906 5907 5908 5908 5908 5909 5910 5909 5909 5908 5906 5905 5905 5905 5905 5903 5902 5903 5904 5905 5906 5907 5907 5906
5772 5773 5775 5777 5776 5777 5778 5780 5780 5781 5783 5783 5784 5789 5792 5796 5800 5804 5807 5809 5809 5809 5810 5813 5818 5825 5830 5830 5830 5832 5833 5835 5837 5838 5840 5839 5839 5844 5848 5851 5854 5857 5863 5866 5868 5871 5874 5878 5879 5879 5882 5885 5886 5889 5890 5889 5893 5896 5897 5899 5901 5902 5902 5901 5902 5904 5905 5905 5906 5907 5908 5907 5907 5907 5905 5903 5903 5904 5905 5904 5902 5902 5904 5904 5904 5905 5905 5904
5767 5769 5770 5771 5771 5772 5774 5775 5775 5776 5777 5779 5783 5787 5790 5794 5798 5801 5803 5804 5804 5803 5804 5808 5813 5818 5824 5828 5830 5831 5831 5833 5835 5836 5837 5837 5838 5841 5845 5849 5852 5856 5861 5864 5865 5867 5870 5874 5877 5877 5880 5883 5883 5886 5887 5886 5889 5892 5894 5897 5897 5898 5900 5901 5900 5902 5903 5903 5903 5905 5905 5904 5904 5905 5904 5903 5902 5903 5905 5904 5902 5902 5903 5904 5903 5902 5903 5903
5763 5764 5764 5764 5765 5768 5770 5770 5770 5772 5774 5778 5781 5784 5787 5791 5794 5797 5799 5800 5800 5799 5800 5804 5807 5810 5816 5823 5828 5831 5831 5831 5834 5835 5835 5836 5838 5840 5843 5847 5850 5853 5858 5862 5863 5865 5866 5870 5874 5876 5877 5878 5877 5880 5885 5886 5886 5889 5891 5893 5894 5895 5898 5899 5899 5900 5901 5901 5901 5903 5902 5901 5901 5901 5901 5901 5901 5902 5903 5903 5902 5902 5902 5902 5902 5901 5900 5900
5758 5758 5757 5759 5761 5763 5764 5765 5766 5769 5771 5775 5778 5780 5784 5787 5790 5793 5795 5796 5798 5800 5802 5803 5804 5807 5812 5818 5824 5830 5831 5831 5832 5833 5833 5834 5836 5838 5840 5845 5849 5851 5855 5858 5859 5861 5863 5865 5870 5873 5873 5874 5874 5876 5882 5886 5885 5886 5888 5889 5891 5894 5896 5896 5896 5897 5898 5899 5900 5900 5899 5897 5897 5898 5897 5898 5898 5900 5900 5900 5900 5900 5900 5899 5899 5900 5899 5898
5753 5752 5751 5754 5757 5758 5759 5760 5763 5765 5767 5771 5774 5777 5780 5783 5786 5789 5790 5792 5794 5797 5800 5802 5804 5806 5808 5810 5816 5823 5827 5828 5829 5831 5832 5832 5834 5837 5840 5843 5846 5849 5851 5855 5856 5859 5861 5862 5866 5870 5871 5871 5874 5875 5877 5882 5883 5883 5884 5885 5887 5889 5892 5893 5894 5895 5896 5896 5897 5898 5896 5893 5893 5894 5894 5895 5896 5896 5896 5896 5895 5895 5896 5896 5896 5896 5897 5896
5747 5746 5746 5749 5753 5754 5755 5757 5759 5761 5764 5768 5770 5772 5775 5778 5780 5783 5786 5788 5790 5792 5795 5797 5799 5801 5803 5805 5809 5814 5819 5821 5823 5827 5831 5832 5833 5836 5839 5841 5843 5846 5848 5851 5854 5857 5859 5860 5862 5868 5870 5870 5873 5874 5874 5877 5880 5880 5881 5884 5886 5886 5888 5891 5893 5893 5893 5893 5894 5895 5893 5890 5889 5890 5892 5893 5894 5894 5893 5892 5891 5890 5891 5895 5895 5893 5893 5893
5742 5741 5741 5744 5747 5749 5750 5753 5756 5758 5761 5763 5765 5768 5771 5773 5776 5779 5782 5784 5786 5787 5791 5794 5797 5800 5802 5805 5807 5810 5814 5816 5818 5822 5826 5831 5832 5834 5838 5840 5841 5843 5845 5847 5851 5854 5856 5857 5859 5863 5867 5867 5869 5872 5872 5871 5874 5877 5879 5882 5885 5887 5888 5888 5889 5889 5890 5890 5891 5892 5890 5888 5887 5888 5890 5891 5891 5891 5890 5890 5891 5889 5888 5890 5892 5891 5889 5888
5736 5736 5736 5738 5741 5743 5746 5748 5751 5753 5756 5759 5761 5764 5767 5769 5772 5776 5778 5780 5782 5784 5786 5789 5794 5797 5799 5802 5805 5807 5811 5813 5815 5818 5821 5826 5832 5835 5837 5838 5838 5840 5843 5845 5848 5851 5854 5856 5856 5858 5861 5863 5864 5868 5869 5868 5870 5874 5877 5878 5881 5885 5886 5886 5886 5886 5887 5888 5888 5889 5888 5886 5885 5886 5886 5887 5887 5888 5887 5886 5886 5886 5886 5887 5889 5889 5888 5886
5731 5731 5730 5732 5735 5738 5741 5744 5746 5749 5752 5754 5756 5758 5761 5765 5768 5772 5774 5777 5779 5781 5782 5784 5787 5790 5792 5796 5801 5805 5808 5811 5814 5816 5817 5819 5826 5831 5834 5836 5837 5838 5840 5844 5846 5848 5851 5854 5854 5856 5859 5861 5863 5866 5869 5868 5869 5871 5875 5876 5877 5879 5881 5883 5883 5883 5884 5886 5886 5886 5886 5885 5884 5884 5884 5884 5884 5884 5883 5881 5880 5880 5882 5884 5884 5885 5885 5884
5724 5724 5725 5727 5730 5734 5737 5739 5741 5744 5747 5749 5752 5755 5757 5760 5763 5767 5770 5774 5778 5780 5780 5780 5782 5784 5787 5791 5795 5800 5804 5806 5810 5813 5811 5811 5815 5820 5825 5830 5834 5836 5838 5841 5844 5845 5848 5850 5852 5854 5856 5859 5862 5865 5866 5867 5868 5870 5873 5875 5876 5877 5878 5879 5880 5880 5881 5883 5882 5883 5884 5884 5883 5883 5883 5883 5883 5882 5880 5879 5877 5876 5877 5880 5881 5882 5882 5882
5719 5719 5721 5724 5726 5729 5732 5735 5736 5739 5742 5744 5747 5750 5753 5756 5759 5762 5766 5770 5775 5776 5775 5775 5779 5783 5786 5789 5791 5794 5798 5802 5805 5807 5805 5806 5809 5813 5817 5822 5827 5831 5834 5837 5839 5841 5844 5846 5848 5851 5853 5856 5859 5861 5862 5864 5867 5869 5871 5873 5874 5875 5876 5877 5878 5878 5879 5879 5879 5880 5881 5881 5881 5881 5881 5881 5881 5879 5877 5877 5878 5876 5875 5876 5879 5879 5879 5880
5713 5714 5716 5719 5721 5724 5728 5731 5732 5734 5737 5739 5741 5745 5749 5752 5755 5759 5762 5764 5768 5770 5771 5774 5779 5783 5787 5788 5788 5790 5793 5796 5799 5800 5800 5801 5803 5809 5815 5818 5820 5825 5830 5834 5836 5836 5839 5842 5845 5847 5849 5852 5855 5857 5858 5860 5862 5864 5866 5868 5870 5872 5873 5874 5875 5876 5876 5876 5877 5877 5877 5877 5878 5879 5879 5878 5877 5875 5873 5873 5875 5876 5875 5874 5875 5875 5875 5875
5708 5709 5710 5713 5717 5719 5722 5726 5728 5730 5733 5735 5738 5741 5744 5747 5751 5756 5757 5756 5758 5762 5765 5770 5775 5779 5783 5785 5785 5786 5786 5788 5790 5792 5794 5796 5799 5805 5812 5815 5816 5819 5825 5831 5833 5833 5835 5838 5841 5843 5844 5847 5851 5855 5856 5856 5857 5859 5861 5864 5866 5868 5870 5872 5873 5874 5874 5874 5874 5873 5873 5873 5875 5875 5875 5874 5872 5869 5868 5868 5869 5871 5872 5872 5873 5873 5871 5870
5701 5704 5706 5708 5711 5715 5717 5720 5722 5724 5728 5732 5734 5737 5739 5741 5745 5749 5750 5749 5752 5755 5758 5763 5769 5775 5778 5780 5780 5779 5778 5780 5782 5783 5786 5791 5797 5802 5807 5810 5814 5815 5819 5826 5829 5829 5831 5835 5837 5839 5841 5843 5847 5851 5853 5854 5856 5857 5858 5860 5863 5866 5868 5869 5870 5871 5872 5872 5872 5870 5869 5870 5871 5871 5870 5868 5866 5865 5864 5863 5864 5865 5868 5870 5871 5871 5868 5866
5695 5698 5700 5702 5706 5710 5711 5714 5716 5717 5720 5725 5727 5728 5730 5734 5737 5740 5742 5746 5749 5751 5753 5756 5761 5767 5771 5773 5773 5771 5772 5774 5775 5777 5781 5788 5795 5799 5802 5806 5810 5812 5814 5819 5822 5823 5826 5829 5832 5835 5837 5839 5842 5846 5849 5852 5854 5854 5855 5858 5860 5861 5863 5864 5865 5866 5866 5866 5867 5867 5867 5867 5867 5866 5865 5863 5863 5862 5861 5861 5861 5863 5867 5869 5869 5868 5866 5865